�������l�o���
Date,Time,MP-1(��Sv/h),MP-2(��Sv/h),MP-3(��Sv/h),MP-4(��Sv/h),MP-5(��Sv/h),MP-6(��Sv/h),MP-7(��Sv/h),MP-8(��Sv/h),����,����(m/s),���J
2020/10/09,00:00,0.644,0.912,0.587,1.124,0.806,0.377,0.653,0.621,�k�k��,3.5,�L
2020/10/09,00:10,0.644,0.913,0.585,1.123,0.806,0.378,0.652,0.619,�k�k��,3.5,�L
2020/10/09,00:20,0.644,0.913,0.584,1.124,0.805,0.379,0.651,0.620,�k�k��,5.3,�L
2020/10/09,00:30,0.642,0.911,0.585,1.125,0.805,0.377,0.653,0.620,�k�k��,5.7,�L
2020/10/09,00:40,0.643,0.913,0.585,1.124,0.805,0.378,0.653,0.620,�k�k��,6.8,�L
2020/10/09,00:50,0.643,0.910,0.585,1.125,0.806,0.378,0.653,0.620,�k�k��,6.7,�L
2020/10/09,01:00,0.645,0.912,0.585,1.121,0.806,0.377,0.652,0.620,�k�k��,7.0,�L
2020/10/09,01:10,0.642,0.913,0.583,1.123,0.804,0.377,0.653,0.621,�k�k��,6.5,�L
2020/10/09,01:20,0.641,0.914,0.585,1.125,0.807,0.377,0.652,0.621,�k�k��,6.4,��
2020/10/09,01:30,0.641,0.910,0.583,1.123,0.806,0.376,0.654,0.622,�k��,6.7,��
2020/10/09,01:40,0.643,0.913,0.584,1.122,0.806,0.376,0.654,0.621,�k�k��,7.2,��
2020/10/09,01:50,0.641,0.911,0.583,1.124,0.805,0.376,0.653,0.621,�k�k��,8.5,��
2020/10/09,02:00,0.642,0.912,0.583,1.121,0.807,0.376,0.653,0.621,�k�k��,6.9,�L
2020/10/09,02:10,0.640,0.914,0.583,1.124,0.805,0.377,0.652,0.621,�k�k��,8.0,�L
2020/10/09,02:20,0.641,0.913,0.583,1.125,0.805,0.376,0.655,0.621,�k�k��,8.6,��
2020/10/09,02:30,0.641,0.912,0.584,1.125,0.808,0.374,0.654,0.621,�k�k��,7.8,��
2020/10/09,02:40,0.642,0.914,0.585,1.125,0.807,0.375,0.654,0.621,�k�k��,7.5,�L
2020/10/09,02:50,0.641,0.912,0.584,1.124,0.807,0.375,0.654,0.621,�k��,7.6,�L
2020/10/09,03:00,0.645,0.912,0.585,1.125,0.808,0.376,0.654,0.622,�k�k��,7.3,��
2020/10/09,03:10,0.642,0.914,0.583,1.125,0.806,0.376,0.655,0.622,�k�k��,7.1,��
2020/10/09,03:20,0.642,0.914,0.582,1.126,0.806,0.376,0.654,0.622,�k�k��,7.2,��
2020/10/09,03:30,0.643,0.913,0.585,1.124,0.808,0.376,0.655,0.621,�k�k��,7.7,��
2020/10/09,03:40,0.641,0.913,0.585,1.127,0.809,0.375,0.654,0.621,�k�k��,7.5,��
2020/10/09,03:50,0.644,0.913,0.584,1.126,0.807,0.376,0.655,0.623,�k�k��,7.6,��
2020/10/09,04:00,0.642,0.913,0.585,1.128,0.803,0.375,0.654,0.621,�k�k��,7.2,��
2020/10/09,04:10,0.642,0.914,0.586,1.127,0.807,0.375,0.654,0.622,�k�k��,7.2,��
2020/10/09,04:20,0.642,0.914,0.584,1.127,0.806,0.375,0.655,0.623,�k��,7.4,��
2020/10/09,04:30,0.643,0.915,0.585,1.127,0.807,0.377,0.655,0.623,�k��,8.1,��
2020/10/09,04:40,0.645,0.914,0.584,1.127,0.810,0.376,0.654,0.621,�k�k��,7.1,��
2020/10/09,04:50,0.643,0.917,0.585,1.126,0.807,0.376,0.654,0.624,�k�k��,6.8,��
2020/10/09,05:00,0.643,0.915,0.586,1.130,0.807,0.376,0.655,0.622,�k�k��,8.1,��
2020/10/09,05:10,0.644,0.916,0.585,1.130,0.808,0.377,0.655,0.621,�k�k��,7.4,��
2020/10/09,05:20,0.644,0.916,0.585,1.129,0.809,0.377,0.656,0.622,�k�k��,7.1,��
2020/10/09,05:30,0.643,0.916,0.585,1.128,0.810,0.377,0.656,0.621,�k�k��,6.6,��
2020/10/09,05:40,0.642,0.917,0.586,1.128,0.810,0.375,0.653,0.623,�k�k��,6.7,��
2020/10/09,05:50,0.643,0.914,0.587,1.130,0.809,0.375,0.657,0.624,�k�k��,6.7,��
2020/10/09,06:00,0.642,0.918,0.586,1.130,0.809,0.377,0.656,0.625,�k�k��,6.5,��
2020/10/09,06:10,0.643,0.916,0.587,1.128,0.808,0.376,0.655,0.622,�k�k��,7.0,��
2020/10/09,06:20,0.647,0.917,0.586,1.128,0.807,0.376,0.657,0.622,�k�k��,7.3,��
2020/10/09,06:30,0.644,0.916,0.584,1.132,0.808,0.376,0.656,0.623,�k�k��,7.7,�L
2020/10/09,06:40,0.646,0.917,0.585,1.132,0.809,0.377,0.656,0.623,�k�k��,7.4,�L
2020/10/09,06:50,0.643,0.918,0.587,1.130,0.807,0.377,0.656,0.621,�k�k��,6.7,�L
2020/10/09,07:00,0.646,0.918,0.587,1.130,0.810,0.377,0.658,0.624,�k�k��,7.3,��
2020/10/09,07:10,0.644,0.919,0.589,1.130,0.811,0.377,0.657,0.624,�k,7.0,��
2020/10/09,07:20,0.643,0.918,0.584,1.131,0.810,0.376,0.658,0.625,�k�k��,7.8,��
2020/10/09,07:30,0.645,0.916,0.587,1.131,0.811,0.376,0.658,0.623,�k�k��,7.1,��
2020/10/09,07:40,0.644,0.917,0.585,1.132,0.808,0.377,0.657,0.625,�k�k��,7.6,��
2020/10/09,07:50,0.645,0.915,0.585,1.131,0.809,0.376,0.656,0.623,�k�k��,7.1,��
2020/10/09,08:00,0.647,0.916,0.587,1.133,0.810,0.376,0.658,0.624,�k�k��,7.1,�L
2020/10/09,08:10,0.646,0.918,0.587,1.132,0.809,0.376,0.655,0.623,�k�k��,7.4,�L
2020/10/09,08:20,0.644,0.916,0.588,1.134,0.809,0.375,0.657,0.623,�k�k��,6.9,�L
2020/10/09,08:30,0.645,0.916,0.587,1.131,0.810,0.377,0.656,0.622,�k,6.5,�L
2020/10/09,08:40,0.645,0.917,0.587,1.131,0.810,0.376,0.656,0.624,�k,6.2,��
2020/10/09,08:50,0.646,0.915,0.587,1.129,0.810,0.378,0.656,0.621,�k�k��,6.8,��
2020/10/09,09:00,0.647,0.916,0.586,1.132,0.813,0.377,0.655,0.622,�k�k��,6.4,��
2020/10/09,09:10,0.646,0.915,0.586,1.132,0.811,0.376,0.657,0.623,�k�k��,7.0,��
2020/10/09,09:20,0.644,0.915,0.585,1.134,0.812,0.376,0.657,0.623,�k�k��,6.3,��
2020/10/09,09:30,0.646,0.913,0.589,1.132,0.809,0.378,0.655,0.622,�k�k��,6.0,��
2020/10/09,09:40,0.647,0.915,0.588,1.130,0.811,0.376,0.655,0.623,�k�k��,5.7,��
2020/10/09,09:50,0.647,0.914,0.587,1.133,0.811,0.377,0.657,0.624,�k�k��,7.4,��
2020/10/09,10:00,0.647,0.915,0.588,1.132,0.811,0.376,0.654,0.623,�k�k��,6.3,��
2020/10/09,10:10,0.647,0.916,0.588,1.130,0.811,0.377,0.658,0.623,�k�k��,4.9,��
2020/10/09,10:20,0.646,0.919,0.587,1.131,0.811,0.377,0.656,0.624,�k�k��,5.4,��
2020/10/09,10:30,0.646,0.917,0.588,1.131,0.812,0.376,0.657,0.625,�k�k��,5.6,��
2020/10/09,10:40,0.645,0.916,0.587,-,0.811,0.376,0.658,0.624,�k,4.5,��
2020/10/09,10:50,0.646,0.915,0.587,-,0.811,0.377,0.657,0.623,�k,3.8,��
2020/10/09,11:00,0.646,0.917,0.589,-,0.812,0.376,0.656,0.622,�k,4.8,��
2020/10/09,11:10,0.648,0.915,0.588,-,0.810,0.376,0.658,0.623,�k,4.5,��
2020/10/09,11:20,0.647,0.917,0.588,-,0.810,0.378,0.656,0.624,�k�k��,4.6,��
2020/10/09,11:30,0.647,0.919,0.587,-,0.812,0.375,0.656,0.624,�k�k��,6.1,��
2020/10/09,11:40,0.647,0.919,0.588,-,0.813,0.376,0.657,0.624,�k��,7.3,��
2020/10/09,11:50,0.648,0.921,0.588,-,0.813,0.376,0.659,0.622,�k��,6.5,��
2020/10/09,12:00,0.645,0.922,0.589,-,0.813,0.377,0.657,0.622,�k��,6.2,��
2020/10/09,12:10,0.648,0.919,0.586,-,0.812,0.378,0.657,0.622,�k��,7.7,��
2020/10/09,12:20,0.647,0.922,0.587,-,0.813,0.378,0.657,0.624,�k��,8.2,��
2020/10/09,12:30,0.647,0.921,0.586,1.132,0.815,0.377,0.659,0.624,���k��,7.0,��
2020/10/09,12:40,0.647,0.921,0.587,1.136,0.814,0.377,0.658,0.621,�k��,7.0,��
2020/10/09,12:50,0.645,0.918,0.589,1.137,0.813,0.376,0.659,0.624,�k��,7.8,��
2020/10/09,13:00,0.647,0.917,0.589,1.136,0.814,0.375,0.658,0.622,�k��,7.6,��
2020/10/09,13:10,0.647,0.917,0.587,1.136,0.813,0.376,0.659,0.622,�k��,7.2,��
2020/10/09,13:20,0.647,0.919,0.586,1.137,0.812,0.376,0.658,0.622,�k��,8.0,��
2020/10/09,13:30,0.647,0.917,0.585,1.136,0.814,0.377,0.658,0.623,���k��,7.7,��
2020/10/09,13:40,0.648,0.918,0.586,1.137,0.813,0.376,0.658,0.624,�k��,8.1,��
2020/10/09,13:50,0.648,0.917,0.587,1.138,0.811,0.376,0.658,0.623,�k��,7.4,��
2020/10/09,14:00,0.647,0.917,0.587,1.138,0.812,0.375,0.660,0.624,�k��,7.5,��
2020/10/09,14:10,0.647,0.920,0.587,1.136,0.813,0.374,0.660,0.624,���k��,7.5,��
2020/10/09,14:20,0.648,0.918,0.588,1.137,0.814,0.377,0.659,0.624,�k��,7.5,��
2020/10/09,14:30,0.649,0.919,0.589,1.138,0.814,0.376,0.660,0.623,�k��,7.4,��
2020/10/09,14:40,0.649,0.917,0.589,1.137,0.814,0.375,0.659,0.623,�k��,6.9,��
2020/10/09,14:50,0.649,0.922,0.589,1.136,0.812,0.375,0.659,0.623,���k��,7.2,��
2020/10/09,15:00,0.648,0.921,0.589,1.136,0.812,0.376,0.659,0.623,�k��,6.5,��
2020/10/09,15:10,0.648,0.925,0.590,1.136,0.813,0.377,0.660,0.625,�k��,7.3,��
2020/10/09,15:20,0.650,0.925,0.589,1.138,0.812,0.377,0.660,0.624,�k��,7.0,��
2020/10/09,15:30,0.649,0.920,0.589,1.138,0.815,0.375,0.659,0.623,�k��,7.2,��
2020/10/09,15:40,0.649,0.924,0.587,1.139,0.813,0.377,0.660,0.625,���k��,7.6,��
2020/10/09,15:50,0.649,0.924,0.589,1.136,0.814,0.377,0.660,0.624,���k��,7.1,��
2020/10/09,16:00,0.651,0.925,0.591,1.139,0.813,0.376,0.659,0.624,���k��,7.8,��
2020/10/09,16:10,0.649,0.926,0.589,1.139,0.815,0.376,0.658,0.625,���k��,7.1,��
2020/10/09,16:20,0.651,0.927,0.590,1.137,0.813,0.377,0.658,0.626,�k��,5.8,��
2020/10/09,16:30,0.652,0.928,0.590,1.138,0.815,0.378,0.658,0.624,���k��,5.8,��
2020/10/09,16:40,0.652,0.928,0.589,1.138,0.814,0.378,0.660,0.625,���k��,6.5,��
2020/10/09,16:50,0.651,0.927,0.591,1.137,0.815,0.377,0.659,0.624,���k��,6.2,��
2020/10/09,17:00,0.649,0.927,0.589,1.138,0.815,0.379,0.660,0.627,���k��,5.4,�L
2020/10/09,17:10,0.651,0.927,0.589,1.137,0.815,0.377,0.659,0.628,���k��,5.8,��
2020/10/09,17:20,0.652,0.927,0.590,1.139,0.816,0.376,0.659,0.626,���k��,6.2,��
2020/10/09,17:30,0.650,0.927,0.590,1.139,0.817,0.378,0.660,0.625,���k��,6.5,�L
2020/10/09,17:40,0.650,0.927,0.590,1.136,0.815,0.377,0.661,0.626,���k��,6.6,��
2020/10/09,17:50,0.653,0.926,0.590,1.138,0.816,0.377,0.662,0.625,���k��,5.9,��
2020/10/09,18:00,0.653,0.929,0.590,1.139,0.817,0.377,0.659,0.626,���k��,6.5,��
2020/10/09,18:10,0.651,0.927,0.590,1.137,0.817,0.379,0.661,0.626,�k��,6.5,��
2020/10/09,18:20,0.652,0.927,0.590,1.139,0.817,0.377,0.661,0.628,�k��,5.4,��
2020/10/09,18:30,0.652,0.929,0.591,1.139,0.818,0.379,0.659,0.627,�k��,6.0,��
2020/10/09,18:40,0.653,0.929,0.590,1.137,0.816,0.378,0.661,0.626,�k��,6.0,��
2020/10/09,18:50,0.652,0.928,0.590,1.140,0.816,0.378,0.660,0.628,�k��,6.3,��
2020/10/09,19:00,0.652,0.928,0.592,1.139,0.817,0.378,0.661,0.626,���k��,6.3,��
2020/10/09,19:10,0.654,0.929,0.591,1.139,0.819,0.379,0.661,0.627,���k��,6.8,��
2020/10/09,19:20,0.652,0.930,0.591,1.140,0.818,0.378,0.660,0.626,�k��,5.2,��
2020/10/09,19:30,0.653,0.929,0.589,1.141,0.818,0.378,0.660,0.627,�k��,6.0,��
2020/10/09,19:40,0.652,0.929,0.590,1.141,0.819,0.378,0.660,0.626,�k��,6.1,��
2020/10/09,19:50,0.653,0.931,0.591,1.138,0.820,0.379,0.660,0.626,�k��,5.9,��
2020/10/09,20:00,0.652,0.929,0.589,1.140,0.821,0.379,0.659,0.626,�k��,5.6,��
2020/10/09,20:10,0.652,0.932,0.589,1.139,0.820,0.379,0.660,0.626,�k��,4.7,��
2020/10/09,20:20,0.653,0.932,0.592,1.140,0.819,0.379,0.661,0.625,�k��,4.1,��
2020/10/09,20:30,0.653,0.928,0.590,1.143,0.820,0.380,0.661,0.628,�k��,3.8,��
2020/10/09,20:40,0.652,0.929,0.590,1.139,0.820,0.377,0.661,0.627,�k,3.0,��
2020/10/09,20:50,0.654,0.930,0.592,1.142,0.819,0.378,0.660,0.626,�k��,3.9,��
2020/10/09,21:00,0.654,0.929,0.591,1.139,0.820,0.378,0.659,0.627,�k�k��,4.1,��
2020/10/09,21:10,0.655,0.932,0.591,1.141,0.820,0.379,0.661,0.625,�k�k��,4.0,��
2020/10/09,21:20,0.653,0.931,0.590,1.142,0.820,0.379,0.662,0.628,�k,3.4,��
2020/10/09,21:30,0.654,0.930,0.592,1.142,0.820,0.379,0.661,0.628,�k,4.1,��
2020/10/09,21:40,0.654,0.929,0.591,1.140,0.821,0.380,0.661,0.627,�k�k��,4.1,��
2020/10/09,21:50,0.653,0.931,0.590,1.142,0.821,0.379,0.661,0.628,�k�k��,3.1,��
2020/10/09,22:00,0.653,0.928,0.592,1.142,0.821,0.379,0.661,0.627,�k�k��,3.2,��
2020/10/09,22:10,0.654,0.932,0.591,1.142,0.820,0.379,0.661,0.626,�k,2.6,��
2020/10/09,22:20,0.654,0.929,0.591,1.141,0.819,0.379,0.662,0.626,�k�k��,2.9,��
2020/10/09,22:30,0.655,0.931,0.591,1.141,0.819,0.379,0.662,0.627,�k�k��,3.6,��
2020/10/09,22:40,0.654,0.930,0.591,1.145,0.821,0.378,0.660,0.626,�k��,3.9,��
2020/10/09,22:50,0.655,0.927,0.591,1.141,0.819,0.379,0.661,0.627,�k��,5.2,��
2020/10/09,23:00,0.654,0.929,0.590,1.140,0.822,0.377,0.662,0.626,�k��,5.0,��
2020/10/09,23:10,0.652,0.932,0.591,1.143,0.820,0.379,0.661,0.629,�k�k��,4.9,��
2020/10/09,23:20,0.654,0.931,0.591,1.142,0.819,0.379,0.661,0.628,�k,3.7,��
2020/10/09,23:30,0.655,0.932,0.591,1.141,0.820,0.379,0.662,0.629,�k,3.0,��
2020/10/09,23:40,0.655,0.930,0.591,1.141,0.820,0.380,0.661,0.628,�k,3.6,��
2020/10/09,23:50,0.654,0.932,0.591,1.143,0.822,0.379,0.661,0.627,�k�k��,3.4,��
